Flag for Germany Weather past 2 weeks in Berlin, Berlin, Germany

Now
59 °F

Cool.


Feels Like: 60 °F
Forecast: 51 / 71 °F
Wind: 3 mph from Northeast

Location: Berlin-Tempelhof


UV Index: 3 (Moderate)

Visibility: N/A


Pressure: 30.09 "Hg

Humidity: 84%

Dew point: 54 °F

Location of BerlinLocation

Historic Weather in Berlin

°F

Berlin temperature yesterday

Maximum temperature yesterday: 68 °F (at 4:00 PM)
Minimum temperature yesterday: 50 °F (at 7:00 AM)
Average temperature yesterday: 59 °F

Past Weeks' High & Low Weather Summary

 TemperatureHumidityPressure
High69 °F (Apr 22, 1:00 PM)97% (Apr 19, 7:00 AM)30.45 "Hg (Apr 19, 7:00 AM)
Low35 °F (Apr 16, 7:00 AM)30% (Apr 16, 7:00 PM)29.69 "Hg (Apr 14, 9:00 AM)
Average52 °F73%30.01 "Hg
* Reported Apr 9 9:00 PM — Apr 24 9:00 PM, Berlin, Weather by CustomWeather, © 2014

Note: Actual official high and low records may vary slightly from our data, if they occured in-between our weather recording intervals... More about our weather records

Advertising

Historic Weather Conditions — Data for Previous 24 hours

 ConditionsComfort  
Time TempWeatherWind HumidityBarometerVisibility
9:00 PM
Apr 24
59 °FCool.3 mph84%30.09 "HgN/A
8:00 PM61 °FCool.3 mph80%30.08 "HgN/A
7:00 PM63 °FMild.5 mph77%30.09 "HgN/A
6:00 PM65 °FMild.3 mph71%30.09 "HgN/A
5:00 PM66 °FMild.1 mph64%30.10 "HgN/A
4:00 PM65 °FMild.2 mph70%30.11 "HgN/A
3:00 PM64 °FMild.1 mph73%30.13 "HgN/A
2:00 PM61 °FCool.3 mph78%30.14 "HgN/A
1:00 PM59 °FCool.1 mph81%30.16 "HgN/A
12:00 PM57 °FCool.1 mph87%30.17 "HgN/A
11:00 AM54 °FCool.1 mph92%30.17 "HgN/A
10:00 AM52 °FCool.2 mph96%30.17 "HgN/A
9:00 AM51 °FCool.1 mph97%30.17 "HgN/A
8:00 AM50 °FCool.2 mph97%30.16 "HgN/A
7:00 AM49 °FCool.2 mph97%30.15 "HgN/A
6:00 AM49 °FCool.2 mph96%30.14 "HgN/A
5:00 AM48 °FCool.2 mph96%30.15 "HgN/A
4:00 AM48 °FCool.3 mph95%30.15 "HgN/A
3:00 AM47 °FCool.2 mph93%30.14 "HgN/A
2:00 AM49 °FCool.3 mph93%30.15 "HgN/A
1:00 AM51 °FCool.3 mph90%30.15 "HgN/A
12:00 AM54 °FCool.3 mph92%30.13 "HgN/A
11:00 PM
Apr 23
57 °FCool.3 mph91%30.14 "HgN/A
10:00 PM58 °FCool.3 mph89%30.13 "HgN/A
9:00 PM60 °FCool.3 mph83%30.13 "HgN/A
Weather by CustomWeather, © 2014

See weather overview